CAPE
7 6 6 4 4 5 6 6 5 4 3 1 1 0 1 1 0 0 0 0 0 0 0 0 0 0 0 0 0 0 0 0 0 0 0 0 0 0 0 0 0 0 0 0 0
7 10 5 4 5 7 8 6 3 3 3 3 2 2 3 2 0 0 0 0 0 0 0 0 0 0 0 0 0 0 0 0 0 0 0 0 0 0 0 0 0 0 0 0 0
7 3 4 3 5 6 7 7 4 4 2 0 0 1 2 3 0 0 0 0 0 1 3 7 10 6 0 0 0 0 0 0 0 0 0 0 0 0 0 0 0 0 0 0 0
3 8 3 4 4 3 7 6 7 3 2 0 0 1 2 0 0 0 0 0 0 0 0 5 9 8 0 0 0 0 0 0 0 0 0 0 0 0 0 0 0 0 0 0 0
4 3 4 5 6 10 4 4 7 2 1 0 0 0 0 0 0 0 0 0 0 0 0 0 20 2 0 0 0 0 0 0 0 0 0 0 0 0 0 0 0 0 0 0 0
6 7 7 10 7 7 2 2 2 3 1 0 0 0 0 0 0 0 0 0 0 0 0 0 19 24 11 4 0 0 0 0 0 0 0 0 0 0 0 0 0 0 0 0 0
16 5 5 16 5 7 7 2 1 0 0 0 0 0 0 0 0 0 0 0 0 0 0 0 0 15 4 6 0 0 0 0 0 0 0 0 0 0 0 0 0 0 0 0 0
9 16 9 19 21 14 12 12 8 0 0 0 0 0 0 0 0 0 0 0 0 0 0 0 0 0 4 13 1 0 0 0 0 0 0 0 0 0 0 0 0 0 0 0 0
15 7 11 28 14 19 16 14 0 0 0 0 0 0 0 0 0 0 0 0 0 0 0 0 0 1 28 3 7 22 0 0 0 0 0 0 0 0 0 0 0 0 0 0 0
7 14 25 31 23 17 14 1 0 0 0 0 0 0 0 0 0 0 0 0 0 0 0 0 0 2 9 25 1 0 0 0 0 0 0 0 0 0 0 0 0 0 0 0 0
13 13 23 30 24 14 3 0 0 0 0 0 0 0 0 0 0 0 0 0 0 0 0 0 0 0 0 0 8 0 0 0 0 0 0 0 0 0 0 0 0 0 0 0 0
5 19 23 28 25 4 0 0 4 28 4 0 0 0 0 0 0 0 0 0 0 0 0 0 0 0 0 0 2 8 11 0 0 1 6 0 0 0 0 0 0 0 0 0 0
9 14 12 19 10 0 0 0 0 3 8 0 0 0 0 0 0 0 0 3 0 0 0 0 0 0 0 0 0 1 7 0 1 0 0 10 0 0 0 0 0 0 0 0 0
6 4 6 17 0 0 0 0 0 6 0 0 0 0 0 0 0 0 0 11 0 0 0 0 0 0 0 0 0 0 1 5 4 8 0 8 0 0 0 0 0 0 0 0 0
7 9 12 20 0 0 0 0 0 0 0 0 0 3 0 0 0 0 0 0 0 0 1 0 0 0 0 0 0 0 0 0 6 2 2 0 0 0 0 0 0 0 0 0 0
11 4 6 0 0 0 0 0 0 0 0 0 0 0 0 0 0 0 0 0 0 0 0 0 0 0 0 0 0 0 0 0 2 2 7 0 0 0 0 0 0 0 0 0 0
6 0 1 0 0 0 0 0 0 0 0 0 0 0 0 0 0 0 0 0 0 0 0 0 0 0 0 1 0 20 1 0 3 4 1 0 0 0 0 0 0 0 0 0 0
9 0 0 0 0 0 0 0 0 0 0 0 0 0 0 0 0 0 0 0 0 0 0 0 0 0 0 0 0 0 0 8 22 2 0 0 1 0 0 0 0 0 0 0 0
0 0 0 0 0 0 0 0 0 0 0 0 0 0 0 0 0 0 0 0 0 0 0 0 0 0 0 0 0 0 0 0 0 0 0 0 0 0 0 0 0 0 0 0 0
0 0 0 0 0 0 0 0 0 0 0 0 0 0 0 0 0 0 0 0 0 0 0 1 0 0 0 1 0 0 0 0 0 0 2 0 0 0 0 0 0 0 0 0 0
0 0 0 0 0 0 0 0 0 0 0 0 0 0 0 0 0 0 0 0 0 0 0 0 0 0 0 0 0 0 0 0 0 0 0 0 0 0 0 0 0 0 0 0 0
1 0 0 0 0 0 0 0 0 0 0 0 0 0 0 0 0 0 0 0 0 0 0 0 0 0 0 0 0 0 0 0 0 0 0 0 0 0 0 0 0 0 0 0 0
1 0 0 0 0 0 0 0 0 0 0 0 0 0 0 0 0 0 0 0 0 0 0 0 0 0 0 0 0 0 0 0 0 0 0 0 0 0 0 0 0 0 0 0 0
0 0 0 0 0 0 0 0 0 0 0 0 0 0 0 0 0 0 0 0 0 0 2 0 0 0 0 0 0 0 0 0 0 0 0 0 0 0 0 0 0 1 0 0 0
0 0 0 0 0 0 0 0 0 0 0 0 0 0 0 0 0 0 0 0 0 0 0 0 0 0 0 0 0 0 0 0 0 0 0 0 0 0 0 0 4 0 2 0 0
0 3 0 0 0 0 0 0 0 0 0 0 0 0 0 0 0 0 0 0 0 0 0 0 0 0 0 0 0 0 0 0 0 0 0 0 0 0 0 0 0 0 0 0 0
0 6 1 0 0 0 0 0 0 0 0 0 0 0 0 0 0 0 0 0 0 0 1 1 0 0 0 0 0 0 0 0 0 0 0 0 0 0 0 0 0 0 0 0 0
CIN
-0 -0 -0 -1 -1 -1 -1 -1 -0 -0 -1 -0 -0 -0 -0 -0 -0 -0 -0 -0 -0 -0 -0 -0 -0 -0 -0 -0 -0 -0 -0 -0 -0 -0 -0 -0 -0 -0 -0 -0 -0 -0 -0 -0 -0
-0 -1 -1 -1 -1 -0 -0 -1 -1 -1 -0 -0 -0 -0 -0 -0 -0 -0 -0 -0 -0 -0 -0 -0 -0 -0 -0 -0 -0 -0 -0 -0 -0 -0 -0 -0 -0 -0 -0 -0 -0 -0 -0 -0 -0
-1 -0 -0 -0 -1 -1 -0 -0 -0 -1 -1 -0 -0 -0 -0 -1 -0 -0 -0 -0 -0 -2 -4 -5 -0 -1 -0 -0 -0 -0 -0 -0 -0 -0 -0 -0 -0 -0 -0 -0 -0 -0 -0 -0 -0
-0 -1 -1 -1 -0 -1 -0 -0 -0 -1 -0 -0 -0 -0 -0 -0 -0 -0 -0 -0 -0 -0 -0 -0 -0 -0 -0 -0 -0 -0 -0 -0 -0 -0 -0 -0 -0 -0 -0 -0 -0 -0 -0 -0 -0
-0 -0 -1 -0 -0 -0 -0 -0 -0 -1 -1 -0 -0 -0 -1 -0 -0 -0 -0 -0 -0 -0 -0 -0 -1 -2 -1 -0 -0 -0 -0 -0 -0 -0 -0 -0 -0 -0 -0 -0 -0 -0 -0 -0 -0
-0 -0 -0 -1 -1 -0 -1 -0 -1 -0 -0 -0 -0 -0 -0 -0 -0 -0 -0 -0 -0 -0 -0 -0 -1 -2 -1 -4 -1 -0 -0 -0 -0 -0 -0 -0 -0 -0 -0 -0 -0 -0 -0 -0 -0
-0 -0 -1 -0 -0 -1 -0 -1 -1 -0 -0 -0 -0 -0 -0 -0 -0 -0 -0 -0 -0 -0 -0 -0 -0 -1 -5 -3 -0 -0 -0 -0 -0 -0 -0 -0 -0 -0 -0 -0 -0 -0 -0 -0 -0
-0 -1 -1 -0 -0 -0 -1 -0 -1 -0 -0 -0 -0 -0 -0 -0 -0 -0 -0 -0 -0 -0 -0 -0 -0 -0 -1 -1 -2 -0 -0 -0 -0 -0 -0 -0 -0 -0 -0 -0 -0 -0 -0 -0 -0
-0 -1 -0 -1 -0 -1 -1 -1 -0 -0 -0 -0 -0 -0 -0 -0 -0 -0 -0 -0 -0 -0 -0 -0 -0 -0 -0 -0 -0 -0 -0 -0 -0 -0 -0 -0 -0 -0 -0 -0 -0 -0 -0 -0 -0
-0 -0 -1 -0 -0 -0 -1 -0 -0 -0 -0 -0 -0 -0 -0 -0 -0 -0 -0 -0 -0 -0 -0 -0 -0 -0 -0 -0 -0 -1 -2 -0 -0 -0 -0 -0 -0 -0 -0 -0 -0 -0 -0 -0 -0
-0 -0 -1 -0 -1 -0 -0 -0 -0 -0 -0 -0 -0 -0 -0 -0 -0 -0 -0 -0 -0 -0 -0 -0 -0 -0 -0 -1 -1 -4 -0 -0 -0 -0 -0 -0 -0 -0 -0 -0 -0 -0 -0 -0 -0
-1 -0 -1 -1 -1 -0 -0 -0 -0 -1 -1 -0 -0 -0 -0 -0 -0 -0 -0 -0 -0 -0 -0 -0 -0 -0 -0 -0 -1 -1 -1 -0 -0 -5 -1 -0 -0 -0 -0 -0 -0 -0 -0 -0 -0
-0 -0 -0 -1 -1 -0 -0 -0 -0 -10 -0 -0 -0 -0 -0 -0 -0 -0 -0 -17 -0 -0 -0 -0 -0 -0 -0 -0 -0 -10 -5 -0 -2 -0 -0 -3 -0 -0 -0 -0 -0 -0 -0 -0 -0
-0 -1 -0 -0 -0 -0 -0 -0 -0 -5 -0 -0 -0 -0 -0 -0 -0 -0 -0 -12 -0 -0 -0 -0 -0 -0 -0 -0 -0 -0 -0 -2 -1 -1 -1 -5 -0 -0 -0 -0 -0 -0 -0 -0 -0
-1 -2 -2 -1 -0 -0 -0 -0 -0 -0 -0 -0 -0 -50 -0 -0 -0 -0 -0 -0 -0 -0 -1 -0 -0 -0 -0 -0 -0 -0 -0 -0 -18 -18 -10 -9 -0 -0 -0 -0 -0 -0 -0 -0 -0
-0 -0 -5 -0 -0 -0 -0 -0 -0 -0 -0 -0 -0 -0 -0 -0 -0 -0 -0 -0 -0 -0 -0 -0 -0 -0 -0 -0 -0 -0 -0 -0 -1 -3 -7 -0 -2 -0 -0 -0 -0 -0 -0 -0 -0
-1 -0 -9 -0 -0 -0 -0 -0 -0 -0 -0 -0 -0 -0 -0 -0 -0 -0 -0 -0 -0 -0 -0 -0 -0 -0 -0 -0 -0 -1 -0 -0 -12 -8 -2 -0 -0 -0 -0 -0 -0 -0 -0 -0 -0
-3 -0 -0 -0 -0 -0 -0 -0 -0 -0 -0 -0 -0 -0 -0 -0 -0 -0 -0 -0 -0 -0 -0 -0 -0 -0 -0 -0 -1 -0 -0 -15 -8 -29 -0 -0 -13 -0 -0 -0 -0 -0 -0 -0 -0
-0 -0 -0 -0 -0 -0 -0 -0 -0 -0 -0 -0 -0 -0 -0 -0 -0 -0 -0 -0 -0 -0 -0 -0 -0 -0 -0 -0 -0 -0 -0 -0 -0 -0 -6 -0 -0 -0 -0 -0 -0 -0 -0 -0 -0
-0 -0 -0 -0 -0 -0 -0 -0 -0 -0 -0 -0 -0 -0 -0 -0 -0 -0 -0 -0 -0 -0 -0 -3 -0 -0 -0 -0 -0 -0 -0 -0 -0 -0 -12 -0 -0 -0 -0 -0 -0 -0 -0 -0 -0
-0 -0 -0 -0 -0 -0 -0 -0 -0 -0 -0 -0 -0 -0 -0 -0 -0 -0 -0 -0 -0 -0 -0 -0 -0 -0 -0 -0 -0 -0 -2 -0 -0 -0 -0 -0 -0 -0 -0 -0 -0 -0 -0 -0 -0
-1 -0 -0 -0 -0 -0 -0 -0 -0 -0 -0 -0 -0 -0 -0 -0 -0 -0 -0 -0 -0 -0 -0 -0 -0 -0 -0 -0 -0 -0 -0 -0 -0 -0 -0 -0 -0 -0 -0 -0 -0 -0 -0 -0 -0
-0 -0 -0 -0 -0 -0 -0 -0 -0 -0 -0 -0 -0 -0 -0 -0 -0 -0 -0 -0 -0 -0 -0 -0 -0 -0 -0 -0 -0 -0 -0 -0 -0 -0 -0 -0 -0 -0 -0 -0 -0 -0 -0 -0 -0
-0 -0 -0 -0 -0 -0 -0 -0 -0 -0 -0 -0 -0 -0 -0 -0 -0 -0 -0 -0 -0 -0 -2 -0 -0 -0 -0 -0 -0 -0 -0 -0 -0 -0 -0 -0 -0 -0 -0 -0 -0 -0 -0 -0 -0
-2 -0 -0 -0 -0 -0 -0 -0 -0 -0 -0 -0 -0 -0 -0 -0 -0 -0 -0 -0 -0 -0 -0 -0 -0 -0 -0 -0 -0 -0 -0 -0 -0 -0 -0 -0 -0 -0 -0 -0 -0 -0 -0 -0 -0
-0 -1 -2 -0 -0 -0 -0 -0 -0 -0 -0 -0 -0 -0 -0 -0 -0 -0 -0 -0 -0 -0 -0 -0 -0 -0 -0 -0 -0 -0 -0 -0 -0 -0 -0 -0 -0 -0 -0 -0 -0 -0 -0 -0 -0
-1 -3 -2 -0 -0 -0 -0 -0 -0 -0 -0 -0 -0 -0 -0 -0 -0 -0 -0 -0 -1 -0 -1 -1 -0 -0 -0 -0 -0 -0 -0 -0 -0 -0 -0 -0 -0 -0 -0 -0 -0 -0 -0 -0 -0
Wind_Speed
37 38 40 41 41 42 43 44 44 45 46 47 47 48 48 49 50 47 44 38 33 32 33 31 30 27 26 32 30 29 43 51 46 40 36 26 30 29 27 29 29 27 31 29 19
39 40 42 42 43 44 45 46 46 46 47 47 47 48 48 48 49 48 39 38 34 32 35 35 35 31 33 33 33 39 47 51 41 40 39 35 30 27 28 29 31 31 29 27 18
40 42 43 43 44 45 46 47 47 48 49 49 49 48 48 45 48 35 26 25 23 27 30 33 33 34 40 36 37 41 57 45 46 43 41 43 39 32 32 33 29 31 30 25 24
42 44 45 44 45 46 46 48 48 49 50 49 49 47 47 39 49 24 32 38 36 34 33 30 32 36 42 46 41 52 49 51 48 44 43 48 43 45 42 42 32 29 27 24 27
43 45 45 44 45 47 48 49 49 50 49 49 48 46 45 41 44 41 46 40 39 37 37 37 38 36 45 42 44 53 51 48 46 50 50 48 50 46 45 40 32 30 28 28 28
42 44 44 44 46 48 49 50 51 51 51 51 48 44 42 52 33 32 31 39 39 38 41 40 40 38 46 44 47 44 45 55 55 54 47 52 56 48 48 45 43 38 36 33 30
42 44 44 45 47 48 49 51 52 53 52 49 46 43 45 47 40 41 46 45 36 33 43 41 42 42 39 47 46 51 59 56 57 47 52 47 64 60 48 44 50 45 41 38 33
43 43 45 45 46 49 51 52 53 52 50 48 44 38 47 35 36 37 33 32 33 37 38 39 38 47 50 47 50 47 48 60 55 52 47 40 81 58 49 47 50 46 45 42 39
42 44 43 45 46 49 51 53 52 50 45 40 42 32 44 28 31 25 30 43 44 40 41 40 38 47 47 54 59 56 66 62 60 48 44 47 73 50 43 44 50 51 49 46 45
43 43 44 45 47 49 52 52 48 41 35 40 28 38 32 37 41 53 51 41 43 47 48 42 40 47 52 54 68 63 62 64 66 50 47 54 74 56 46 44 48 48 48 47 46
42 42 43 44 46 49 51 48 49 45 48 43 44 40 38 34 32 30 31 35 30 34 43 40 49 58 56 56 60 61 62 65 57 51 52 58 71 58 51 52 53 52 49 48 47
42 42 43 43 46 47 37 46 39 39 51 39 37 28 23 26 35 38 28 26 31 43 40 40 50 55 55 54 54 61 66 66 62 49 54 57 67 53 50 53 52 52 53 51 48
41 42 42 44 46 35 42 37 34 38 42 45 28 24 25 22 32 42 24 25 37 46 45 46 47 43 50 59 61 56 60 65 62 49 55 57 72 64 54 51 52 51 51 50 51
40 40 41 45 38 40 39 33 35 32 41 40 27 24 21 31 37 31 25 29 40 45 45 42 46 46 48 56 52 66 52 55 59 59 70 48 77 60 59 61 57 61 59 58 53
39 39 40 41 38 38 34 34 32 29 48 29 28 22 36 38 36 38 21 30 38 43 36 40 40 41 45 52 54 56 48 52 48 54 59 57 62 67 57 62 58 58 58 57 55
39 39 40 38 34 28 29 32 30 37 37 35 25 39 42 46 36 27 25 19 31 33 32 41 41 42 47 48 45 52 49 54 55 56 71 64 62 76 60 58 57 54 55 55 53
39 39 39 34 32 28 29 33 39 35 33 31 35 37 45 32 32 24 30 33 32 28 25 30 35 33 32 38 33 39 45 49 53 58 68 55 55 62 45 51 53 54 54 51 49
40 38 35 29 24 26 30 35 40 32 33 28 31 39 29 35 32 27 17 32 20 19 29 27 32 25 23 32 28 39 37 39 43 44 50 43 52 53 52 49 43 44 46 46 47
39 36 33 25 24 26 34 39 33 32 30 30 40 26 42 28 20 20 15 18 17 20 26 27 28 26 19 21 27 33 45 28 37 32 32 36 37 40 39 40 42 46 45 45 38
39 38 30 26 24 28 33 32 27 27 28 27 22 24 35 31 33 29 27 16 19 25 26 27 34 8 27 8 13 26 26 38 35 39 38 39 36 39 36 36 38 39 39 37 35
36 39 27 26 27 31 34 29 27 25 27 20 16 16 14 33 8 24 14 17 24 27 24 20 19 19 21 19 18 21 22 26 26 30 33 28 32 30 34 29 29 29 31 33 34
33 40 29 28 35 29 33 26 26 25 19 27 17 11 13 32 10 14 3 17 28 30 28 18 18 25 20 13 21 28 23 23 28 30 27 28 30 25 24 25 26 26 27 28 28
37 34 28 27 36 35 30 23 25 23 18 26 25 18 17 20 20 9 5 22 29 31 24 23 21 26 21 17 18 20 25 32 24 20 26 25 25 19 20 20 23 26 26 26 26
32 39 34 29 28 33 32 26 27 19 6 23 23 23 30 26 7 20 20 20 34 31 27 24 19 17 22 22 24 20 18 22 23 25 25 25 23 28 26 26 28 28 27 26 26
29 32 32 37 36 31 26 25 23 19 19 27 27 17 33 31 35 22 23 31 31 27 24 23 21 18 20 19 14 15 13 12 14 21 23 23 22 26 30 31 31 31 30 30 29
30 34 29 31 29 29 27 23 17 14 11 16 2 25 29 14 17 37 37 35 34 29 25 24 22 22 22 14 16 16 13 12 13 15 16 15 18 28 29 29 29 30 30 30 28
24 24 27 29 28 29 25 21 14 7 8 7 15 26 25 16 13 26 30 34 32 38 33 28 23 21 19 19 17 13 13 13 15 16 17 19 24 29 29 26 25 28 28 29 29
Wind_Direction
347 347 345 344 345 343 343 341 339 336 334 330 327 322 318 315 311 307 301 298 295 294 287 287 285 280 275 270 267 268 264 262 262 265 267 282 275 276 278 271 271 271 267 272 270
348 345 343 342 342 342 340 339 338 336 334 331 328 323 320 317 311 305 305 299 294 288 284 281 277 277 270 269 265 259 260 262 266 265 269 271 272 276 274 270 267 268 270 270 258
347 346 344 344 342 341 341 339 339 336 333 330 327 324 321 320 309 308 318 327 313 300 290 283 277 272 268 266 262 262 259 266 266 266 268 267 268 273 268 266 270 269 267 264 255
346 344 343 343 342 341 340 339 338 337 333 330 328 325 321 318 297 312 307 304 303 298 292 288 276 270 267 262 262 263 265 264 267 267 266 264 267 265 264 265 275 273 273 262 255
345 344 344 345 343 341 340 339 338 336 333 330 326 324 321 308 296 301 301 299 297 294 284 279 274 271 266 268 265 261 264 266 268 265 264 266 262 264 263 262 268 274 272 266 259
348 347 346 345 344 341 339 337 336 334 332 328 324 322 315 299 312 308 303 301 300 293 282 278 273 273 271 268 263 267 268 265 264 263 266 263 262 262 260 260 263 267 268 266 262
347 346 345 344 342 340 339 336 335 333 331 329 326 321 306 296 306 303 298 296 296 291 281 280 274 268 271 269 268 267 265 265 261 264 262 264 261 256 261 262 260 263 264 265 264
345 345 344 343 342 339 336 336 334 333 332 330 329 324 305 313 310 304 304 301 298 295 289 287 279 266 263 266 267 267 264 260 262 259 261 259 254 261 260 259 259 261 261 261 262
348 345 344 344 342 339 337 336 335 334 334 338 332 327 312 326 314 314 307 297 294 292 290 287 283 266 262 258 260 258 258 258 261 260 260 252 257 263 262 259 259 259 260 260 260
347 346 345 344 342 340 338 338 337 339 345 342 342 327 321 314 310 301 297 297 292 290 285 276 275 265 257 251 251 253 255 257 257 259 258 258 258 262 262 262 261 260 260 259 259
348 347 346 345 343 342 341 344 344 341 339 337 326 318 316 322 324 320 313 303 296 293 284 279 264 257 254 253 256 258 258 258 260 260 259 258 259 262 263 261 260 259 260 260 260
350 347 346 346 344 343 350 345 346 340 332 335 326 323 321 328 320 315 321 299 294 289 288 277 265 262 261 262 261 256 256 256 259 261 258 260 259 262 262 260 259 259 259 260 261
350 348 348 346 345 351 346 347 350 346 337 340 347 347 348 349 329 316 320 298 295 289 283 274 272 275 263 258 258 259 254 254 257 261 260 261 259 259 261 263 261 260 260 261 260
351 350 349 347 349 347 346 352 351 352 339 344 353 353 357 346 328 332 321 303 296 286 283 277 275 271 265 256 254 256 257 258 257 258 256 258 258 259 259 259 260 258 259 260 262
352 350 349 350 343 347 349 352 354 356 339 357 353 360 334 335 332 302 343 315 297 286 283 278 277 276 269 263 251 257 259 261 259 257 258 258 261 259 260 258 259 260 259 260 261
353 350 349 350 349 351 355 354 357 350 344 346 351 341 339 307 333 338 343 341 319 297 287 276 281 281 272 268 260 250 259 260 259 259 257 256 257 257 257 259 261 263 262 262 261
353 351 350 352 351 358 359 356 350 350 352 351 344 343 322 348 350 352 338 327 312 306 294 296 288 295 277 269 259 244 248 254 252 250 255 257 256 257 266 261 263 265 265 266 265
353 352 354 358 1 4 2 357 351 352 349 350 347 297 355 348 358 4 3 303 344 328 292 300 302 312 312 269 263 239 243 247 253 258 255 259 257 259 261 267 270 268 267 272 269
355 357 356 7 8 7 359 354 355 355 356 351 330 360 331 356 7 14 30 278 275 303 311 307 303 330 332 297 244 246 239 254 262 275 266 262 267 272 269 269 269 267 268 270 274
355 356 0 8 11 3 356 353 356 356 356 355 359 359 347 301 319 5 336 259 281 315 317 312 297 217 336 28 255 249 250 248 254 259 266 264 267 268 273 272 272 271 273 275 277
357 357 7 8 5 359 356 355 353 357 358 1 0 359 285 315 20 12 36 268 308 300 296 273 253 261 276 313 270 244 246 248 255 257 266 279 270 283 275 282 280 281 283 283 282
0 355 4 4 356 2 359 359 357 354 6 282 255 255 273 310 283 30 231 16 302 309 292 265 260 279 270 245 283 250 253 251 251 254 270 276 278 306 296 287 290 294 296 292 290
354 355 8 9 357 356 354 352 355 1 12 317 299 265 280 286 285 269 52 282 306 301 284 280 277 290 290 297 327 266 253 244 257 271 267 272 275 307 312 306 302 298 301 302 302
360 356 1 7 5 355 355 356 358 12 16 274 264 274 297 288 5 267 265 318 299 288 279 282 254 244 264 261 272 282 280 262 260 259 271 269 281 287 297 300 299 301 306 307 305
4 360 0 357 359 359 2 357 1 15 357 291 303 7 302 294 294 322 276 284 300 292 293 288 251 246 254 267 286 319 316 291 281 275 276 281 283 294 295 292 300 304 303 300 302
1 360 3 354 1 3 4 8 11 26 26 262 302 277 287 287 273 281 284 283 285 300 284 278 247 265 272 306 358 358 343 331 315 305 308 297 297 314 305 305 308 310 303 300 307
5 4 0 358 1 2 10 13 11 284 250 17 270 281 285 286 292 274 266 261 250 266 261 261 254 267 255 283 262 306 321 343 350 337 314 314 301 308 308 310 316 313 314 309 306